Regional Weather Roundup
Issued by NWS Nashville, TN

Home | Current Version | Previous Version | Text Only | Print | Product List | Glossary On
Versions: 1 2 3 4 5 6 7 8 9 10 11 12 13 14 15 16 17 18 19 20 21 22 23 24 25 26 27 28 29 30 31 32 33 34 35 36 37 38 39 40 41 42 43 44 45 46 47 48 49 50
000
ASUS44 KOHX 060700
RWROHX
MIDDLE TENNESSEE HOURLY WEATHER ROUNDUP
NATIONAL WEATHER SERVICE NASHVILLE TN
100 AM CST FRI MAR 06 2015

NOTE: "FAIR" INDICATES FEW OR NO CLOUDS BELOW 12,000 FEET WITH
NO SIGNIFICANT WEATHER AND/OR OBSTRUCTIONS TO VISIBILITY.

* THESE REPORTS ARE NOT UNDER NWS QUALITY CONTROL AND MAY NOT
  REPORT WEATHER SUCH AS PRECIPITATION AND FOG.


TNZ005>011-023>034-057-059-062>066-078-080-060800
...NORTHERN MIDDLE TENNESSEE...

CITY           SKY/WX    TMP DP  RH WIND       PRES   REMARKS
CLARKSVILLE    PTCLDY     7   3  84 NW5       30.58R WCI  -2
CROSSVILLE     PTCLDY    15  10  80 NE7       30.40S WCI   5
NASHVILLE      PTCLDY    14   6  70 N8        30.55S WCI   3
SPARTA         CLEAR     16  12  86 CALM      30.47R
$$
TNZ056-058-060-061-075>077-079-093>097-060800
...SOUTHERN MIDDLE TENNESSEE...

CITY           SKY/WX    TMP DP  RH WIND       PRES   REMARKS
COLUMBIA         N/A     14  10  85 N3        30.52F
MCMINNVILLE    CLEAR     18  12  79 NE6       30.47S WCI   9
SHELBYVILLE    CLEAR     16  10  79 N6        30.52S WCI   7
TULLAHOMA      CLEAR     14  10  85 N8          N/A  WCI   3
WINCHESTER     CLEAR     18  12  79 N9        30.47S WCI   6
$$


...KEY TO REMARKS...
VSB - VISIBILITY IN MILES
WCI - WIND CHILL INDEX
HX  - HEAT INDEX



USA.gov is the U.S. government's official web portal to all federal, state and local government web resources and services.